| time (UTC) | temp F | wind direction | speed MPH | gust MPH | rain 1hr in | rain 24hr in | rain mn in | humidity % | barometer mb |
| 20260902154802 | 74 | 237 | 2.0 | 2.0 | 0.00 | 0.00 | 0.00 | 99 | 1012.5 |
| 20260902153602 | 74 | 201 | 2.0 | 3.0 | 0.00 | 0.00 | 0.00 | 99 | 1012.6 |
| 20260902152404 | 74 | 329 | 0.0 | 0.0 | 0.00 | 0.00 | 0.00 | 99 | 1012.8 |
| 20260902151203 | 75 | 111 | 1.0 | 1.0 | 0.00 | 0.00 | 0.00 | 99 | 1012.7 |
| 20260902150003 | 75 | 158 | 0.0 | 1.0 | 0.00 | 0.00 | 0.00 | 99 | 1013.0 |
| 20260902144802 | 75 | 217 | 1.0 | 2.0 | 0.00 | 0.00 | 0.00 | 99 | 1012.9 |
| 20260902143603 | 75 | 234 | 0.0 | 0.0 | 0.00 | 0.00 | 0.00 | 99 | 1013.3 |
| 20260902142405 | 75 | 224 | 0.0 | 1.0 | 0.00 | 0.00 | 0.00 | 99 | 1013.3 |
| 20260902141202 | 75 | 229 | 0.0 | 0.0 | 0.00 | 0.00 | 0.00 | 99 | 1013.5 |
| 20260902140004 | 75 | 246 | 0.0 | 0.0 | 0.00 | 0.00 | 0.00 | 99 | 1013.3 |
| 20260902134803 | 75 | 215 | 1.0 | 2.0 | 0.00 | 0.00 | 0.00 | 99 | 1013.5 |
| 20260902133602 | 75 | 324 | 1.0 | 1.0 | 0.00 | 0.00 | 0.00 | 99 | 1013.4 |
| 20260902132403 | 76 | 209 | 0.0 | 0.0 | 0.00 | 0.00 | 0.00 | 99 | 1013.4 |
| 20260902131201 | 76 | 210 | 1.0 | 2.0 | 0.00 | 0.00 | 0.00 | 99 | 1013.6 |
| 20260902130003 | 76 | 176 | 1.0 | 2.0 | 0.00 | 0.00 | 0.00 | 99 | 1013.3 |
| 20260902124802 | 76 | 324 | 2.0 | 3.0 | 0.00 | 0.00 | 0.00 | 99 | 1013.4 |
| 20260902123602 | 76 | 208 | 0.0 | 0.0 | 0.00 | 0.00 | 0.00 | 99 | 1013.6 |
| 20260902122402 | 76 | 223 | 2.0 | 2.0 | 0.00 | 0.00 | 0.00 | 99 | 1013.7 |
| 20260902121204 | 76 | 289 | 1.0 | 2.0 | 0.00 | 0.00 | 0.00 | 99 | 1013.6 |
| 20260902120002 | 76 | 284 | 0.0 | 1.0 | 0.00 | 0.00 | 0.00 | 99 | 1013.9 |
| 20260902114803 | 77 | 190 | 1.0 | 2.0 | 0.00 | 0.00 | 0.00 | 99 | 1013.7 |
| 20260902113603 | 77 | 217 | 1.0 | 2.0 | 0.00 | 0.00 | 0.00 | 99 | 1013.8 |
| 20260902112402 | 77 | 262 | 1.0 | 2.0 | 0.00 | 0.00 | 0.00 | 99 | 1013.7 |
| 20260902111204 | 77 | 239 | 2.0 | 2.0 | 0.00 | 0.00 | 0.00 | 98 | 1013.9 |
| 20260902110007 | 78 | 241 | 2.0 | 3.0 | 0.00 | 0.00 | 0.00 | 98 | 1013.6 |
| 20260902104802 | 78 | 206 | 0.0 | 1.0 | 0.00 | 0.00 | 0.00 | 98 | 1013.7 |
| 20260902103604 | 78 | 306 | 2.0 | 2.0 | 0.00 | 0.00 | 0.00 | 97 | 1013.8 |
| 20260902102402 | 78 | 200 | 0.0 | 1.0 | 0.00 | 0.00 | 0.00 | 97 | 1013.6 |
| 20260902101203 | 78 | 217 | 1.0 | 1.0 | 0.00 | 0.00 | 0.00 | 96 | 1013.2 |
| 20260902100002 | 79 | 300 | 1.0 | 1.0 | 0.00 | 0.00 | 0.00 | 96 | 1013.2 |
| 20260902094802 | 79 | 206 | 1.0 | 2.0 | 0.00 | 0.00 | 0.00 | 95 | 1013.1 |
| 20260902093602 | 79 | 271 | 1.0 | 3.0 | 0.00 | 0.00 | 0.00 | 94 | 1012.9 |
| 20260902092402 | 80 | 226 | 3.0 | 5.0 | 0.00 | 0.00 | 0.00 | 94 | 1012.9 |
| 20260902091204 | 80 | 232 | 1.0 | 3.0 | 0.00 | 0.00 | 0.00 | 93 | 1012.9 |
| 20260902090002 | 81 | 237 | 1.0 | 2.0 | 0.00 | 0.00 | 0.00 | 92 | 1012.7 |
| 20260902084801 | 81 | 246 | 3.0 | 5.0 | 0.00 | 0.00 | 0.00 | 93 | 1012.8 |
| 20260902083602 | 82 | 251 | 3.0 | 5.0 | 0.00 | 0.00 | 0.00 | 91 | 1012.8 |
| 20260902082403 | 82 | 315 | 2.0 | 3.0 | 0.00 | 0.00 | 0.00 | 90 | 1012.7 |
| 20260902081203 | 83 | 264 | 2.0 | 3.0 | 0.00 | 0.00 | 0.00 | 87 | 1012.7 |
| 20260902080003 | 84 | 282 | 2.0 | 3.0 | 0.00 | 0.00 | 0.00 | 87 | 1012.8 |
| 20260902074802 | 84 | 309 | 1.0 | 2.0 | 0.00 | 0.00 | 0.00 | 84 | 1012.5 |
| 20260902073603 | 85 | 337 | 0.0 | 1.0 | 0.00 | 0.00 | 0.00 | 82 | 1012.4 |
| 20260902072403 | 84 | 328 | 0.0 | 1.0 | 0.00 | 0.00 | 0.00 | 83 | 1012.5 |
| 20260902071202 | 86 | 26 | 1.0 | 3.0 | 0.00 | 0.00 | 0.00 | 81 | 1012.4 |
| 20260902070004 | 85 | 347 | 1.0 | 2.0 | 0.00 | 0.00 | 0.00 | 80 | 1012.4 |
| 20260902064803 | 85 | 3 | 2.0 | 3.0 | 0.00 | 0.00 | 0.00 | 80 | 1012.2 |
| 20260902063603 | 86 | 348 | 2.0 | 5.0 | 0.00 | 0.00 | 0.00 | 77 | 1012.3 |
| 20260902062403 | 88 | 18 | 1.0 | 2.0 | 0.00 | 0.00 | 0.00 | 75 | 1012.3 |
| 20260902061202 | 86 | 15 | 2.0 | 5.0 | 0.00 | 0.00 | 0.00 | 76 | 1012.3 |
| 20260902060002 | 87 | 342 | 3.0 | 6.0 | 0.00 | 0.00 | 0.00 | 75 | 1012.2 |
| 20260902054803 | 88 | 10 | 5.0 | 8.0 | 0.00 | 0.00 | 0.00 | 73 | 1012.5 |
| 20260902053602 | 88 | 348 | 2.0 | 6.0 | 0.00 | 0.00 | 0.00 | 71 | 1012.1 |
| 20260902052402 | 89 | 61 | 2.0 | 3.0 | 0.00 | 0.00 | 0.00 | 70 | 1012.5 |
| 20260902051202 | 89 | 19 | 5.0 | 7.0 | 0.00 | 0.00 | 0.00 | 70 | 1012.8 |
| 20260902050002 | 88 | 340 | 5.0 | 6.0 | 0.00 | 0.00 | 0.00 | 71 | 1012.6 |
| 20260902044803 | 89 | 32 | 1.0 | 2.0 | 0.00 | 0.00 | 0.00 | 69 | 1013.1 |
| 20260902043603 | 88 | 345 | 2.0 | 3.0 | 0.00 | 0.00 | 0.00 | 70 | 1013.2 |
| 20260902042404 | 88 | 31 | 1.0 | 2.0 | 0.00 | 0.00 | 0.00 | 69 | 1013.0 |
| 20260902041203 | 87 | 72 | 3.0 | 6.0 | 0.00 | 0.00 | 0.00 | 71 | 1013.3 |
| 20260902040002 | 86 | 326 | 3.0 | 7.0 | 0.00 | 0.00 | 0.00 | 73 | 1013.2 |
| 20260902034803 | 87 | 75 | 3.0 | 6.0 | 0.00 | 0.00 | 0.00 | 71 | 1013.3 |
| 20260902033603 | 87 | 59 | 1.0 | 1.0 | 0.00 | 0.00 | 0.00 | 71 | 1013.8 |
| 20260902032403 | 86 | 24 | 3.0 | 6.0 | 0.00 | 0.00 | 0.00 | 73 | 1013.5 |
| 20260902031202 | 87 | 93 | 1.0 | 5.0 | 0.00 | 0.00 | 0.00 | 71 | 1013.4 |
| 20260902030003 | 86 | 50 | 1.0 | 2.0 | 0.00 | 0.00 | 0.00 | 73 | 1013.9 |
| 20260902024802 | 85 | 48 | 3.0 | 5.0 | 0.00 | 0.00 | 0.00 | 74 | 1013.9 |
| 20260902023602 | 86 | 41 | 2.0 | 6.0 | 0.00 | 0.00 | 0.00 | 75 | 1014.0 |
| 20260902022403 | 84 | 95 | 0.0 | 1.0 | 0.00 | 0.00 | 0.00 | 76 | 1014.1 |
| 20260902021202 | 81 | 323 | 1.0 | 3.0 | 0.00 | 0.00 | 0.00 | 80 | 1014.2 |
| 20260902020002 | 83 | 10 | 1.0 | 2.0 | 0.00 | 0.00 | 0.00 | 80 | 1014.3 |
| 20260902014803 | 81 | 30 | 3.0 | 5.0 | 0.00 | 0.00 | 0.00 | 83 | 1014.6 |
| 20260902013602 | 80 | 339 | 2.0 | 3.0 | 0.00 | 0.00 | 0.00 | 85 | 1014.5 |
| 20260902012403 | 81 | 54 | 1.0 | 2.0 | 0.00 | 0.00 | 0.00 | 81 | 1014.6 |
| 20260902011202 | 82 | 26 | 2.0 | 2.0 | 0.00 | 0.00 | 0.00 | 83 | 1014.6 |
| 20260902010003 | 80 | 13 | 0.0 | 1.0 | 0.00 | 0.00 | 0.00 | 83 | 1015.0 |
| 20260902004801 | 81 | 27 | 1.0 | 2.0 | 0.00 | 0.00 | 0.00 | 86 | 1015.1 |
| 20260902003603 | 79 | 114 | 0.0 | 0.0 | 0.00 | 0.00 | 0.00 | 89 | 1015.1 |
| 20260902002403 | 79 | 148 | 2.0 | 3.0 | 0.00 | 0.00 | 0.00 | 89 | 1014.8 |
| 20260902001203 | 77 | 123 | 0.0 | 1.0 | 0.00 | 0.00 | 0.00 | 92 | 1015.0 |
| 20260902000005 | 77 | 93 | 0.0 | 1.0 | 0.00 | 0.00 | 0.00 | 93 | 1015.0 |
| 20260901234803 | 76 | 70 | 1.0 | 2.0 | 0.00 | 0.00 | 0.00 | 94 | 1015.0 |
| 20260901233605 | 76 | 44 | 0.0 | 1.0 | 0.00 | 0.00 | 0.00 | 94 | 1014.9 |
| 20260901232404 | 75 | 97 | 0.0 | 0.0 | 0.00 | 0.00 | 0.00 | 94 | 1014.9 |
| 20260901231204 | 75 | 144 | 0.0 | 1.0 | 0.00 | 0.00 | 0.00 | 96 | 1014.9 |
| 20260901230004 | 74 | 203 | 2.0 | 3.0 | 0.00 | 0.00 | 0.00 | 97 | 1014.8 |
| 20260901224803 | 74 | 198 | 1.0 | 2.0 | 0.00 | 0.00 | 0.00 | 99 | 1014.9 |
| 20260901223604 | 73 | 287 | 0.0 | 0.0 | 0.00 | 0.00 | 0.00 | 99 | 1014.8 |
| 20260901222404 | 73 | 260 | 0.0 | 1.0 | 0.00 | 0.00 | 0.00 | 99 | 1014.9 |
| 20260901221204 | 72 | 194 | 0.0 | 1.0 | 0.00 | 0.00 | 0.00 | 99 | 1014.8 |
| 20260901220004 | 72 | 128 | 1.0 | 2.0 | 0.00 | 0.00 | 0.00 | 99 | 1014.6 |
| 20260901214803 | 72 | 270 | 1.0 | 2.0 | 0.00 | 0.00 | 0.00 | 99 | 1014.9 |
| 20260901213603 | 72 | 268 | 0.0 | 0.0 | 0.00 | 0.00 | 0.00 | 99 | 1015.1 |
| 20260901212404 | 72 | 268 | 0.0 | 0.0 | 0.00 | 0.00 | 0.00 | 99 | 1015.0 |
| 20260901211203 | 71 | 268 | 2.0 | 3.0 | 0.00 | 0.00 | 0.00 | 99 | 1015.1 |
| 20260901210002 | 71 | 258 | 1.0 | 1.0 | 0.00 | 0.01 | 0.00 | 99 | 1014.9 |
| 20260901204802 | 71 | 257 | 1.0 | 1.0 | 0.00 | 0.01 | 0.00 | 99 | 1015.1 |
| 20260901203602 | 71 | 257 | 0.0 | 0.0 | 0.00 | 0.01 | 0.00 | 99 | 1015.4 |
| 20260901202401 | 71 | 257 | 0.0 | 0.0 | 0.00 | 0.01 | 0.00 | 99 | 1015.1 |
| 20260901201202 | 71 | 258 | 1.0 | 1.0 | 0.00 | 0.02 | 0.00 | 99 | 1015.0 |
| 20260901200002 | 71 | 258 | 1.0 | 2.0 | 0.00 | 0.02 | 0.00 | 99 | 1015.3 |
| 20260901194803 | 71 | 254 | 1.0 | 2.0 | 0.00 | 0.02 | 0.00 | 99 | 1015.0 |
| 20260901193604 | 71 | 251 | 1.0 | 2.0 | 0.00 | 0.02 | 0.00 | 99 | 1015.2 |
| 20260901192402 | 71 | 229 | 1.0 | 2.0 | 0.00 | 0.02 | 0.00 | 99 | 1015.3 |
| 20260901191202 | 71 | 250 | 2.0 | 3.0 | 0.00 | 0.02 | 0.00 | 99 | 1015.1 |
| 20260901190003 | 71 | 244 | 0.0 | 1.0 | 0.00 | 0.02 | 0.00 | 99 | 1015.3 |
| 20260901184802 | 71 | 238 | 2.0 | 2.0 | 0.00 | 0.02 | 0.00 | 99 | 1015.6 |
| 20260901183604 | 71 | 240 | 0.0 | 1.0 | 0.00 | 0.02 | 0.00 | 99 | 1015.2 |
| 20260901182403 | 71 | 234 | 0.0 | 0.0 | 0.00 | 0.02 | 0.00 | 99 | 1015.6 |
| 20260901181202 | 71 | 234 | 0.0 | 1.0 | 0.00 | 0.02 | 0.00 | 99 | 1015.3 |
| 20260901180002 | 72 | 234 | 0.0 | 0.0 | 0.00 | 0.02 | 0.00 | 99 | 1015.5 |
| 20260901174803 | 72 | 234 | 0.0 | 0.0 | 0.00 | 0.02 | 0.00 | 99 | 1015.5 |
| 20260901173603 | 72 | 234 | 0.0 | 0.0 | 0.00 | 0.02 | 0.00 | 99 | 1015.4 |
| 20260901172402 | 72 | 234 | 1.0 | 1.0 | 0.00 | 0.02 | 0.00 | 99 | 1015.5 |
| 20260901171203 | 72 | 234 | 0.0 | 0.0 | 0.00 | 0.02 | 0.00 | 99 | 1015.6 |
| 20260901170002 | 72 | 234 | 0.0 | 0.0 | 0.00 | 0.02 | 0.00 | 99 | 1015.6 |
| 20260901164804 | 72 | 234 | 0.0 | 0.0 | 0.00 | 0.02 | 0.00 | 99 | 1015.8 |
| 20260901163603 | 72 | 234 | 0.0 | 0.0 | 0.00 | 0.02 | 0.00 | 99 | 1015.6 |
| 20260901162403 | 72 | 216 | 1.0 | 2.0 | 0.00 | 0.02 | 0.00 | 99 | 1015.8 |
| 20260901161203 | 72 | 245 | 1.0 | 2.0 | 0.00 | 0.02 | 0.00 | 99 | 1015.8 |
| 20260901160003 | 72 | 236 | 1.0 | 2.0 | 0.00 | 0.02 | 0.00 | 99 | 1016.2 |